Location: �perlecques
(50.8057°N, 2.1521°E)
Time: 18:06:32
(UTC+00:00)

Cosmos 1656 - Pass Details

Date: 09 April 2020
Orbit: 798 x 849 km, 71.1° (Epoch: 23 May)

Event Time Altitude Azimuth Distance (km) Brightness Sun altitude
Rises 21:23:07 0° 327° (NNW) 3,422 8.3 -22.9°
Reaches altitude 10° 21:25:39 10° 322° (NW) 2,479 7.3 -23.2°
Maximum altitude 21:31:05 48° 250° (WSW) 1,092 4.3 -23.7°
Enters shadow 21:32:52 36° 203° (SSW) 1,310 4.4 -23.9°
